Regional Weather Roundup
Issued by NWS

Home | Current Version | Previous Version | Graphics & Text | Print | Product List | Glossary On
Versions: 1 2 3 4 5 6 7 8 9 10 11 12 13 14 15 16 17 18 19 20 21 22 23 24 25 26 27 28 29 30 31 32 33 34 35 36 37 38 39 40 41 42 43 44 45 46 47 48 49 50
000
ASUS43 KLOT 190408
RWRIL

ILLINOIS REGIONAL WEATHER ROUNDUP
NATIONAL WEATHER SERVICE CHICAGO/ROMEOVILLE IL
1000 PM CST SUN FEB 18 2018

NOTE: "FAIR" INDICATES FEW OR NO CLOUDS BELOW 12,000 FEET WITH NO
SIGNIFICANT WEATHER AND/OR OBSTRUCTIONS TO VISIBILITY.

* THESE STATIONS ARE NOT UNDER NWS QUALITY CONTROL. THEY ALSO MAY NOT
  REPORT WEATHER SUCH AS PRECIPITATION OR FOG.

ILZ001-002-007-009-015-016-024-190500-
NORTHWEST ILLINOIS

CITY           SKY/WX    TMP DP  RH WIND       PRES   REMARKS
MOLINE         CLOUDY    43  32  65 S10       29.82R
STERLING*      CLOUDY    39  32  76 VRB5      29.85S
SAVANNA*       CLOUDY    37  32  83 SE8       29.84S WCI  30
$$

ILZ003-004-008-010-011-017-018-190500-
NORTH CENTRAL ILLINOIS

CITY           SKY/WX    TMP DP  RH WIND       PRES   REMARKS
ROCKFORD       MOCLDY    38  31  76 S14       29.87S WCI  30
FREEPORT*      MOCLDY    36  32  85 S10       29.86S WCI  28
ROCHELLE*      FAIR      36  32  84 S24       29.84F WCI  25
DE KALB*       FAIR      36  32  84 S18       29.88S WCI  26
PERU*          MOCLDY    37  31  78 S17       29.86F WCI  28
$$

ILZ005-006-012>014-019>023-190500-
NORTHEAST ILLINOIS

CITY           SKY/WX    TMP DP  RH WIND       PRES   REMARKS
CHICAGO-OHARE  MOCLDY    39  29  67 S15       29.89F WCI  31
CHICAGO-MIDWAY MOCLDY    40  31  70 S15G22    29.91F
AURORA         FAIR      39  31  72 S21G28    29.89F WCI  29
LANSING*       FAIR      38  32  78 S16G22    29.94F WCI  29
JOLIET*        FAIR      39  32  76 S8        29.91F WCI  33
WAUKEGAN       FAIR      38  30  73 S13       29.88R WCI  30
DUPAGE AIRPORT FAIR      37  31  78 S16       29.88F WCI  28
KANKAKEE*      FAIR      37  31  77 SE10      29.95S WCI  30
WHEELING       FAIR      39  31  72 S14       29.91F WCI  31
MORRIS*        FAIR      38  31  76 S12G21    29.91S WCI  31
ROMEOVILLE*    FAIR      37  31  81 S15       29.91S WCI  27
NORTHERLY ISL    N/A     38  29  70 S12         N/A  WCI  30
$$

LMZ740>746-190500-
SOUTHERN LAKE MICHIGAN

STATION/POSITION SKY/WX   TEMP    WIND        PRES    VSBY  WAVE
                          AIR SEA DIR/SP/G                  HT/PER
                          (F)     (DEG/KT/KT) (MB)    (MI)  (FT/S)
HARRISON CRIB              38     170/ 22/ 24   N/A
BURNHAM HARBOR             39     170/ 11/ 17   N/A
CALUMET HARBOR             39     160/ 14/ 20 1012.2F
BURNS HARBOR               39     170/ 16/ 24 1014.2F
MICHIGAN CITY              39     150/ 21/ 24   N/A
$$

ILZ025>027-034>036-040-047-049-050-058-095>099-190500-
WEST-CENTRAL ILLINOIS

CITY           SKY/WX    TMP DP  RH WIND       PRES   REMARKS
QUINCY         CLOUDY    48  31  51 S14G24    29.77F
GALESBURG*     CLOUDY    42  34  74 S9        29.84R
MACOMB*        CLOUDY    43  34  71 S20G25    29.83R
JACKSONVILLE*  CLOUDY    45  34  64 S18G24    29.85F
PITTSFIELD*    CLOUDY    48  36  64 S20G25    29.81F
$$

ILZ028>032-037-038-041>044-048-051>054-059>061-190500-
CENTRAL ILLINOIS

CITY           SKY/WX    TMP DP  RH WIND       PRES   REMARKS
PONTIAC        FAIR      40  36  84 S21       29.90F
BLOOMINGTON    MOCLDY    39  32  76 S20       29.89F WCI  29
DECATUR        CLOUDY    45  33  63 S24G32    29.91F
PEORIA         CLOUDY    43  33  68 S17G28    29.86F
LACON*         CLOUDY    40  32  72 S21G29    29.83F
LINCOLN*       MOCLDY    42  36  76 S15G21    29.88F
SPRINGFIELD    CLOUDY    46  35  65 S23G31    29.88F
TAYLORVILLE    MOCLDY    45  34  63 S21G26    29.91S
$$

ILZ033-039-045-046-055>057-062-063-190500-
EAST-CENTRAL ILLINOIS

CITY           SKY/WX    TMP DP  RH WIND       PRES   REMARKS
CHAMPAIGN      MOCLDY    42  33  70 SE20      29.94F
DANVILLE*      CLOUDY    41  32  71 S14       29.95F
RANTOUL*       CLOUDY    41  35  80 S15       29.94F
MATTOON        CLOUDY    45  33  63 S20G26    29.95F
PARIS*         MOCLDY    42  34  72 SE15      29.99F
$$

ILZ079-100>102-190500-
SOUTHWEST ILLINOIS

CITY           SKY/WX    TMP DP  RH WIND       PRES   REMARKS
ALTON          MOCLDY    48  37  66 SE16G23   29.92S
BELLEVILLE     CLOUDY    50  37  60 S15       29.93F
CAHOKIA*       CLOUDY    49  37  63 S12G17    29.91F
SPARTA*        CLOUDY    51  40  65 S14G22    29.96F
$$

ILZ064>066-069>071-074>076-080>082-084>086-088>090-092>094-190500-
SOUTH-CENTRAL ILLINOIS

CITY           SKY/WX    TMP DP  RH WIND       PRES   REMARKS
CARBONDALE     CLOUDY    51  38  60 S14       29.99F
CAIRO*         CLOUDY    52  41  64 S8        30.02F
EFFINGHAM*     CLOUDY    46  36  68 SE10G17   29.99F
MARION         CLOUDY    51  37  57 S16       30.00F
MT. VERNON     MOCLDY    47  37  68 SE7       30.00S
CENTRALIA*     MOCLDY    48  37  64 S13       29.97F
SALEM*         MOCLDY    49  35  57 SE8       29.97F
METROPOLIS*    CLOUDY    55  38  53 S5        30.04S
$$

ILZ067-068-072-073-078-083-087-091-190500-
SOUTHEAST ILLINOIS

CITY           SKY/WX    TMP DP  RH WIND       PRES   REMARKS
LAWRENCEVILLE  CLOUDY    46  35  65 SE13      30.02F
FLORA*         CLOUDY    48  37  64 SE10      29.99F
FAIRFIELD*     CLOUDY    47  36  64 SE7       30.00F
HARRISBURG*    CLOUDY    47  41  77 S7        30.02S
ROBINSON*      CLOUDY    45  34  65 SE12      30.03F
CARMI*         CLOUDY    46  39  78 SE8       30.02S
$$

ABBREVIATIONS USED IN REMARKS
   TC - TEMPERATURE IN CELSIUS
  WCI - WIND CHILL INDEX
   HX - HEAT INDEX
  VSB - VISIBILITY
$$




USA.gov is the U.S. government's official web portal to all federal, state and local government web resources and services.